owner,sensor,date,latitude,longitude,vertical_datum,direction_of_sea_water_velocity,sea_water_speed,upward_sea_water_velocity,qcFlag 
TABS,ioos:station:wmo:42045:1,1999-03-01T00:00:00Z,26.2168,-96.4998,2.0,354.6997258,27.38711011,-99999.0,'11111222,11111222,99999999' 
TABS,ioos:station:wmo:42045:1,1999-03-01T00:30:00Z,26.2168,-96.4998,2.0,21.28010309,33.25755553,-99999.0,'11111222,11111222,99999999' 
TABS,ioos:station:wmo:42045:1,1999-03-01T01:00:00Z,26.2168,-96.4998,2.0,43.77024151,39.20396026,-99999.0,'11111222,11111222,99999999' 
TABS,ioos:station:wmo:42045:1,1999-03-01T01:30:00Z,26.2168,-96.4998,2.0,46.57393963,38.36087199,-99999.0,'11111222,11111222,99999999' 
TABS,ioos:station:wmo:42045:1,1999-03-01T02:00:00Z,26.2168,-96.4998,2.0,47.82225393,34.1805705,-99999.0,'11111222,11111222,99999999' 
TABS,ioos:station:wmo:42045:1,1999-03-01T02:30:00Z,26.2168,-96.4998,2.0,48.5623973,30.61323407,-99999.0,'11111222,11111222,99999999' 
TABS,ioos:station:wmo:42045:1,1999-03-01T03:00:00Z,26.2168,-96.4998,2.0,47.18123537,30.47009353,-99999.0,'11111222,11111222,99999999' 
TABS,ioos:station:wmo:42045:1,1999-03-01T03:30:00Z,26.2168,-96.4998,2.0,46.80770511,30.0387017,-99999.0,'11111222,11111222,99999999' 
TABS,ioos:station:wmo:42045:1,1999-03-01T04:00:00Z,26.2168,-96.4998,2.0,52.9684096,31.16612424,-99999.0,'11111222,11111222,99999999' 
TABS,ioos:station:wmo:42045:1,1999-03-01T04:30:00Z,26.2168,-96.4998,2.0,55.10055619,29.43340279,-99999.0,'11111222,11111222,99999999' 
TABS,ioos:station:wmo:42045:1,1999-03-01T05:00:00Z,26.2168,-96.4998,2.0,61.71674548,28.93431354,-99999.0,'11111222,11111222,99999999' 
TABS,ioos:station:wmo:42045:1,1999-03-01T05:30:00Z,26.2168,-96.4998,2.0,57.26600723,29.75548689,-99999.0,'11111222,11111222,99999999' 
TABS,ioos:station:wmo:42045:1,1999-03-01T06:00:00Z,26.2168,-96.4998,2.0,67.62876091,28.19180377,-99999.0,'11111222,11111222,99999999' 
TABS,ioos:station:wmo:42045:1,1999-03-01T06:30:00Z,26.2168,-96.4998,2.0,69.76997775,27.15515605,-99999.0,'11111222,11111222,99999999' 
TABS,ioos:station:wmo:42045:1,1999-03-01T07:00:00Z,26.2168,-96.4998,2.0,76.41199933,27.28366728,-99999.0,'11111222,11111222,99999999' 
TABS,ioos:station:wmo:42045:1,1999-03-01T07:30:00Z,26.2168,-96.4998,2.0,76.60650201,25.7297979,-99999.0,'11111222,11111222,99999999' 
TABS,ioos:station:wmo:42045:1,1999-03-01T08:00:00Z,26.2168,-96.4998,2.0,81.05253296,24.88279124,-99999.0,'11111222,11111222,99999999' 
TABS,ioos:station:wmo:42045:1,1999-03-01T08:30:00Z,26.2168,-96.4998,2.0,83.82656735,23.52643194,-99999.0,'11111222,11111222,99999999' 
TABS,ioos:station:wmo:42045:1,1999-03-01T09:00:00Z,26.2168,-96.4998,2.0,84.76253618,22.89559128,-99999.0,'11111222,11111222,99999999' 
TABS,ioos:station:wmo:42045:1,1999-03-01T09:30:00Z,26.2168,-96.4998,2.0,94.01941148,19.11702121,-99999.0,'11111222,11111222,99999999' 
TABS,ioos:station:wmo:42045:1,1999-03-01T10:00:00Z,26.2168,-96.4998,2.0,96.30361302,19.03508603,-99999.0,'11111222,11111222,99999999' 
TABS,ioos:station:wmo:42045:1,1999-03-01T10:30:00Z,26.2168,-96.4998,2.0,98.70653116,18.69543527,-99999.0,'11111222,11111222,99999999' 
TABS,ioos:station:wmo:42045:1,1999-03-01T11:00:00Z,26.2168,-96.4998,2.0,94.60964486,18.53997033,-99999.0,'11111222,11111222,99999999' 
TABS,ioos:station:wmo:42045:1,1999-03-01T11:30:00Z,26.2168,-96.4998,2.0,103.5671614,17.77603162,-99999.0,'11111222,11111222,99999999' 
TABS,ioos:station:wmo:42045:1,1999-03-01T12:00:00Z,26.2168,-96.4998,2.0,105.6239563,19.34479258,-99999.0,'11111222,11111222,99999999' 
TABS,ioos:station:wmo:42045:1,1999-03-01T12:30:00Z,26.2168,-96.4998,2.0,109.4242141,16.11736951,-99999.0,'11111222,11111222,99999999' 
TABS,ioos:station:wmo:42045:1,1999-03-01T13:00:00Z,26.2168,-96.4998,2.0,112.9661213,14.89027199,-99999.0,'11111222,11111222,99999999' 
TABS,ioos:station:wmo:42045:1,1999-03-01T13:30:00Z,26.2168,-96.4998,2.0,139.924556,17.13280479,-99999.0,'11111222,11111222,99999999' 
TABS,ioos:station:wmo:42045:1,1999-03-01T14:00:00Z,26.2168,-96.4998,2.0,111.077943,11.17789336,-99999.0,'11111222,11111222,99999999' 
TABS,ioos:station:wmo:42045:1,1999-03-01T14:30:00Z,26.2168,-96.4998,2.0,112.5525341,10.48154569,-99999.0,'11111222,11111222,99999999' 
TABS,ioos:station:wmo:42045:1,1999-03-01T15:00:00Z,26.2168,-96.4998,2.0,54.73305174,10.58214062,-99999.0,'11111222,11111222,99999999' 
TABS,ioos:station:wmo:42045:1,1999-03-01T15:30:00Z,26.2168,-96.4998,2.0,40.12283808,7.401925425,-99999.0,'11133222,11111222,99999999' 
TABS,ioos:station:wmo:42045:1,1999-03-01T16:00:00Z,26.2168,-96.4998,2.0,5.109927362,6.736772224,-99999.0,'11133222,11111222,99999999' 
TABS,ioos:station:wmo:42045:1,1999-03-01T16:30:00Z,26.2168,-96.4998,2.0,3.034243011,5.667944954,-99999.0,'11133222,11111222,99999999' 
TABS,ioos:station:wmo:42045:1,1999-03-01T17:00:00Z,26.2168,-96.4998,2.0,2.402814309,7.156290939,-99999.0,'11133222,11111222,99999999' 
TABS,ioos:station:wmo:42045:1,1999-03-01T17:30:00Z,26.2168,-96.4998,2.0,315.0003157,7.792316729,-99999.0,'11133222,11111222,99999999' 
TABS,ioos:station:wmo:42045:1,1999-03-01T18:00:00Z,26.2168,-96.4998,2.0,352.9048005,7.205178693,-99999.0,'11133222,11111222,99999999' 
TABS,ioos:station:wmo:42045:1,1999-03-01T18:30:00Z,26.2168,-96.4998,2.0,340.4709408,7.119585662,-99999.0,'11133222,11111222,99999999' 
TABS,ioos:station:wmo:42045:1,1999-03-01T19:00:00Z,26.2168,-96.4998,2.0,350.5675972,6.345801762,-99999.0,'11133222,11111222,99999999' 
TABS,ioos:station:wmo:42045:1,1999-03-01T19:30:00Z,26.2168,-96.4998,2.0,338.8216062,4.954644286,-99999.0,'11133222,11111222,99999999' 
TABS,ioos:station:wmo:42045:1,1999-03-01T20:00:00Z,26.2168,-96.4998,2.0,338.6837278,9.435518004,-99999.0,'11133222,11111222,99999999' 
TABS,ioos:station:wmo:42045:1,1999-03-01T20:30:00Z,26.2168,-96.4998,2.0,333.4352214,12.65614475,-99999.0,'11111222,11111222,99999999' 
TABS,ioos:station:wmo:42045:1,1999-03-01T21:00:00Z,26.2168,-96.4998,2.0,341.1260922,11.96324789,-99999.0,'11111222,11111222,99999999' 
TABS,ioos:station:wmo:42045:1,1999-03-01T21:30:00Z,26.2168,-96.4998,2.0,336.5047561,14.94943812,-99999.0,'11111222,11111222,99999999' 
TABS,ioos:station:wmo:42045:1,1999-03-01T22:00:00Z,26.2168,-96.4998,2.0,340.9054556,15.92628645,-99999.0,'11111222,11111222,99999999' 
TABS,ioos:station:wmo:42045:1,1999-03-01T22:30:00Z,26.2168,-96.4998,2.0,348.1013831,17.36307864,-99999.0,'11111222,11111222,99999999' 
TABS,ioos:station:wmo:42045:1,1999-03-01T23:00:00Z,26.2168,-96.4998,2.0,347.9415684,19.96044338,-99999.0,'11111222,11111222,99999999' 
TABS,ioos:station:wmo:42045:1,1999-03-01T23:30:00Z,26.2168,-96.4998,2.0,351.5860188,21.3902431,-99999.0,'11111222,11111222,99999999' 
TABS,ioos:station:wmo:42045:1,1999-03-02T00:00:00Z,26.2168,-96.4998,2.0,357.8123855,19.38413011,-99999.0,'11111222,11111222,99999999' 
TABS,ioos:station:wmo:42045:1,1999-03-02T00:30:00Z,26.2168,-96.4998,2.0,343.9934001,24.3334379,-99999.0,'11111222,11111222,99999999' 
TABS,ioos:station:wmo:42045:1,1999-03-02T01:00:00Z,26.2168,-96.4998,2.0,348.1837324,13.08734121,-99999.0,'11111222,11111222,99999999' 
TABS,ioos:station:wmo:42045:1,1999-03-02T01:30:00Z,26.2168,-96.4998,2.0,344.3011807,19.80895,-99999.0,'11111222,11111222,99999999' 
TABS,ioos:station:wmo:42045:1,1999-03-02T02:00:00Z,26.2168,-96.4998,2.0,355.6015154,19.42722317,-99999.0,'11111222,11111222,99999999' 
TABS,ioos:station:wmo:42045:1,1999-03-02T02:30:00Z,26.2168,-96.4998,2.0,357.9237669,20.42341059,-99999.0,'11111222,11111222,99999999' 
TABS,ioos:station:wmo:42045:1,1999-03-02T03:00:00Z,26.2168,-96.4998,2.0,356.1861445,22.3996116,-99999.0,'11111222,11111222,99999999' 
TABS,ioos:station:wmo:42045:1,1999-03-02T03:30:00Z,26.2168,-96.4998,2.0,352.303487,22.25045842,-99999.0,'11111222,11111222,99999999' 
TABS,ioos:station:wmo:42045:1,1999-03-02T04:00:00Z,26.2168,-96.4998,2.0,357.9637882,25.04581801,-99999.0,'11111222,11111222,99999999' 
TABS,ioos:station:wmo:42045:1,1999-03-02T04:30:00Z,26.2168,-96.4998,2.0,0.674774802,25.48176603,-99999.0,'11111222,11111222,99999999' 
TABS,ioos:station:wmo:42045:1,1999-03-02T06:00:00Z,26.2168,-96.4998,2.0,14.69201676,28.19176121,-99999.0,'11111222,11111222,99999999' 
TABS,ioos:station:wmo:42045:1,1999-03-02T06:30:00Z,26.2168,-96.4998,2.0,12.03408697,24.98915165,-99999.0,'11111222,11111222,99999999' 
TABS,ioos:station:wmo:42045:1,1999-03-02T07:00:00Z,26.2168,-96.4998,2.0,12.25305651,24.54921995,-99999.0,'11111222,11111222,99999999' 
TABS,ioos:station:wmo:42045:1,1999-03-02T07:30:00Z,26.2168,-96.4998,2.0,14.35682796,26.45619965,-99999.0,'11111222,11111222,99999999' 
TABS,ioos:station:wmo:42045:1,1999-03-02T08:00:00Z,26.2168,-96.4998,2.0,15.57197713,24.4369638,-99999.0,'11111222,11111222,99999999' 
TABS,ioos:station:wmo:42045:1,1999-03-02T08:30:00Z,26.2168,-96.4998,2.0,21.80985587,25.67795163,-99999.0,'11111222,11111222,99999999' 
TABS,ioos:station:wmo:42045:1,1999-03-02T09:00:00Z,26.2168,-96.4998,2.0,26.8565308,26.38594323,-99999.0,'11111222,11111222,99999999' 
TABS,ioos:station:wmo:42045:1,1999-03-02T09:30:00Z,26.2168,-96.4998,2.0,31.18657378,26.47615153,-99999.0,'11111222,11111222,99999999' 
TABS,ioos:station:wmo:42045:1,1999-03-02T10:00:00Z,26.2168,-96.4998,2.0,38.18067402,24.83249685,-99999.0,'11111222,11111222,99999999' 
TABS,ioos:station:wmo:42045:1,1999-03-02T10:30:00Z,26.2168,-96.4998,2.0,42.7108658,23.7211509,-99999.0,'11111222,11111222,99999999' 
TABS,ioos:station:wmo:42045:1,1999-03-02T11:00:00Z,26.2168,-96.4998,2.0,44.76501304,24.12668647,-99999.0,'11111222,11111222,99999999' 
TABS,ioos:station:wmo:42045:1,1999-03-02T11:30:00Z,26.2168,-96.4998,2.0,44.71878681,21.60237255,-99999.0,'11111222,11111222,99999999' 
TABS,ioos:station:wmo:42045:1,1999-03-02T12:00:00Z,26.2168,-96.4998,2.0,42.63096538,23.09263302,-99999.0,'11111222,11111222,99999999' 
TABS,ioos:station:wmo:42045:1,1999-03-02T12:30:00Z,26.2168,-96.4998,2.0,54.46712878,28.20167726,-99999.0,'11111222,11111222,99999999' 
TABS,ioos:station:wmo:42045:1,1999-03-02T13:00:00Z,26.2168,-96.4998,2.0,56.68561066,24.96204519,-99999.0,'11111222,11111222,99999999' 
TABS,ioos:station:wmo:42045:1,1999-03-02T13:30:00Z,26.2168,-96.4998,2.0,82.18246517,19.7031165,-99999.0,'11111222,11111222,99999999' 
TABS,ioos:station:wmo:42045:1,1999-03-02T14:00:00Z,26.2168,-96.4998,2.0,73.94848932,23.72495732,-99999.0,'11111222,11111222,99999999' 
TABS,ioos:station:wmo:42045:1,1999-03-02T14:30:00Z,26.2168,-96.4998,2.0,90.0,23.99,-99999.0,'11111222,11111222,99999999' 
TABS,ioos:station:wmo:42045:1,1999-03-02T15:00:00Z,26.2168,-96.4998,2.0,63.04525066,29.58386385,-99999.0,'11111222,11111222,99999999' 
TABS,ioos:station:wmo:42045:1,1999-03-02T15:30:00Z,26.2168,-96.4998,2.0,64.52178986,28.05875621,-99999.0,'11111222,11111222,99999999' 
TABS,ioos:station:wmo:42045:1,1999-03-02T16:00:00Z,26.2168,-96.4998,2.0,59.57850891,29.7220356,-99999.0,'11111222,11111222,99999999' 
TABS,ioos:station:wmo:42045:1,1999-03-02T16:30:00Z,26.2168,-96.4998,2.0,62.1027942,28.66072225,-99999.0,'11111222,11111222,99999999' 
TABS,ioos:station:wmo:42045:1,1999-03-02T17:00:00Z,26.2168,-96.4998,2.0,65.73876588,26.47855736,-99999.0,'11111222,11111222,99999999' 
TABS,ioos:station:wmo:42045:1,1999-03-02T17:30:00Z,26.2168,-96.4998,2.0,64.61044785,25.72466715,-99999.0,'11111222,11111222,99999999' 
TABS,ioos:station:wmo:42045:1,1999-03-02T18:00:00Z,26.2168,-96.4998,2.0,65.79862996,25.80829324,-99999.0,'11111222,11111222,99999999' 
TABS,ioos:station:wmo:42045:1,1999-03-02T18:30:00Z,26.2168,-96.4998,2.0,72.33273028,24.54780235,-99999.0,'11111222,11111222,99999999' 
TABS,ioos:station:wmo:42045:1,1999-03-02T19:00:00Z,26.2168,-96.4998,2.0,71.87896171,25.39979527,-99999.0,'11111222,11111222,99999999' 
TABS,ioos:station:wmo:42045:1,1999-03-02T19:30:00Z,26.2168,-96.4998,2.0,70.71856358,25.25670604,-99999.0,'11111222,11111222,99999999' 
TABS,ioos:station:wmo:42045:1,1999-03-02T20:00:00Z,26.2168,-96.4998,2.0,73.08236975,26.63255339,-99999.0,'11111222,11111222,99999999' 
TABS,ioos:station:wmo:42045:1,1999-03-02T20:30:00Z,26.2168,-96.4998,2.0,67.74811212,24.7966651,-99999.0,'11111222,11111222,99999999' 
TABS,ioos:station:wmo:42045:1,1999-03-02T21:00:00Z,26.2168,-96.4998,2.0,69.90805926,24.27747104,-99999.0,'11111222,11111222,99999999' 
TABS,ioos:station:wmo:42045:1,1999-03-02T21:30:00Z,26.2168,-96.4998,2.0,72.48052603,23.75173678,-99999.0,'11111222,11111222,99999999' 
TABS,ioos:station:wmo:42045:1,1999-03-02T22:00:00Z,26.2168,-96.4998,2.0,74.37373708,24.9107246,-99999.0,'11111222,11111222,99999999' 
TABS,ioos:station:wmo:42045:1,1999-03-02T22:30:00Z,26.2168,-96.4998,2.0,75.28723376,24.64818857,-99999.0,'11111222,11111222,99999999' 
TABS,ioos:station:wmo:42045:1,1999-03-02T23:00:00Z,26.2168,-96.4998,2.0,69.0715737,23.76804788,-99999.0,'11111222,11111222,99999999' 
TABS,ioos:station:wmo:42045:1,1999-03-02T23:30:00Z,26.2168,-96.4998,2.0,78.03065312,20.10715793,-99999.0,'11111222,11111222,99999999' 
TABS,ioos:station:wmo:42045:1,1999-03-03T11:00:00Z,26.2168,-96.4998,2.0,214.3280112,30.12763681,-99999.0,'11111222,11111222,99999999' 
TABS,ioos:station:wmo:42045:1,1999-03-03T12:00:00Z,26.2168,-96.4998,2.0,216.9205672,35.97401423,-99999.0,'11111222,11111222,99999999' 
TABS,ioos:station:wmo:42045:1,1999-03-03T12:30:00Z,26.2168,-96.4998,2.0,226.4465844,29.40380418,-99999.0,'11111222,11111222,99999999' 
TABS,ioos:station:wmo:42045:1,1999-03-03T13:00:00Z,26.2168,-96.4998,2.0,227.8753516,33.54496087,-99999.0,'11111222,11111222,99999999' 
TABS,ioos:station:wmo:42045:1,1999-03-03T13:30:00Z,26.2168,-96.4998,2.0,229.653025,40.26811394,-99999.0,'11111222,11111222,99999999' 
TABS,ioos:station:wmo:42045:1,1999-03-03T14:00:00Z,26.2168,-96.4998,2.0,231.6310449,32.88124846,-99999.0,'11111222,11111222,99999999' 
TABS,ioos:station:wmo:42045:1,1999-03-03T14:30:00Z,26.2168,-96.4998,2.0,228.7410327,37.06066918,-99999.0,'11111222,11111222,99999999' 
TABS,ioos:station:wmo:42045:1,1999-03-03T15:00:00Z,26.2168,-96.4998,2.0,229.2275309,38.55739099,-99999.0,'11111222,11111222,99999999' 
TABS,ioos:station:wmo:42045:1,1999-03-03T15:30:00Z,26.2168,-96.4998,2.0,229.1835424,37.60515922,-99999.0,'11111222,11111222,99999999' 
TABS,ioos:station:wmo:42045:1,1999-03-03T16:00:00Z,26.2168,-96.4998,2.0,236.8883146,40.91400005,-99999.0,'11111222,11111222,99999999' 
TABS,ioos:station:wmo:42045:1,1999-03-03T16:30:00Z,26.2168,-96.4998,2.0,235.6933286,42.03206514,-99999.0,'11111222,11111222,99999999' 
TABS,ioos:station:wmo:42045:1,1999-03-03T17:00:00Z,26.2168,-96.4998,2.0,242.9874427,42.97853534,-99999.0,'11111222,11111222,99999999' 
TABS,ioos:station:wmo:42045:1,1999-03-03T17:30:00Z,26.2168,-96.4998,2.0,247.0606659,44.33607222,-99999.0,'11111222,11111222,99999999' 
TABS,ioos:station:wmo:42045:1,1999-03-03T18:00:00Z,26.2168,-96.4998,2.0,249.5903724,39.7449632,-99999.0,'11111222,11111222,99999999' 
TABS,ioos:station:wmo:42045:1,1999-03-03T18:30:00Z,26.2168,-96.4998,2.0,252.4269104,43.91952299,-99999.0,'11111222,11111222,99999999' 
TABS,ioos:station:wmo:42045:1,1999-03-03T19:00:00Z,26.2168,-96.4998,2.0,248.5367433,42.74409901,-99999.0,'11111222,11111222,99999999' 
TABS,ioos:station:wmo:42045:1,1999-03-03T19:30:00Z,26.2168,-96.4998,2.0,251.3726216,42.45381608,-99999.0,'11111222,11111222,99999999' 
TABS,ioos:station:wmo:42045:1,1999-03-03T20:00:00Z,26.2168,-96.4998,2.0,258.642946,40.88042196,-99999.0,'11111222,11111222,99999999' 
TABS,ioos:station:wmo:42045:1,1999-03-03T20:30:00Z,26.2168,-96.4998,2.0,265.3263612,38.41771727,-99999.0,'11111222,11111222,99999999' 
TABS,ioos:station:wmo:42045:1,1999-03-03T21:00:00Z,26.2168,-96.4998,2.0,266.9818956,36.85110039,-99999.0,'11111222,11111222,99999999' 
TABS,ioos:station:wmo:42045:1,1999-03-03T21:30:00Z,26.2168,-96.4998,2.0,268.182389,32.79649372,-99999.0,'11111222,11111222,99999999' 
TABS,ioos:station:wmo:42045:1,1999-03-03T22:00:00Z,26.2168,-96.4998,2.0,268.8519066,29.95600941,-99999.0,'11111222,11111222,99999999' 
TABS,ioos:station:wmo:42045:1,1999-03-03T22:30:00Z,26.2168,-96.4998,2.0,272.9066316,29.38779679,-99999.0,'11111222,11111222,99999999' 
TABS,ioos:station:wmo:42045:1,1999-03-03T23:00:00Z,26.2168,-96.4998,2.0,276.1716924,27.72064213,-99999.0,'11111222,11111222,99999999' 
TABS,ioos:station:wmo:42045:1,1999-03-03T23:30:00Z,26.2168,-96.4998,2.0,278.4440961,26.3556787,-99999.0,'11111222,11111222,99999999' 
TABS,ioos:station:wmo:42045:1,1999-03-04T00:00:00Z,26.2168,-96.4998,2.0,277.8020074,21.95319794,-99999.0,'11111222,11111222,99999999' 
TABS,ioos:station:wmo:42045:1,1999-03-04T00:30:00Z,26.2168,-96.4998,2.0,332.3045331,16.99742628,-99999.0,'11111222,11111222,99999999' 
TABS,ioos:station:wmo:42045:1,1999-03-04T01:00:00Z,26.2168,-96.4998,2.0,318.97391,15.20398961,-99999.0,'11111222,11111222,99999999' 
TABS,ioos:station:wmo:42045:1,1999-03-04T01:30:00Z,26.2168,-96.4998,2.0,327.4462471,12.73009819,-99999.0,'11111222,11111222,99999999' 
TABS,ioos:station:wmo:42045:1,1999-03-04T02:00:00Z,26.2168,-96.4998,2.0,306.644512,15.23011819,-99999.0,'11111222,11111222,99999999' 
TABS,ioos:station:wmo:42045:1,1999-03-04T02:30:00Z,26.2168,-96.4998,2.0,306.7469277,13.94003228,-99999.0,'11111222,11111222,99999999' 
TABS,ioos:station:wmo:42045:1,1999-03-04T03:00:00Z,26.2168,-96.4998,2.0,318.1465929,13.39865665,-99999.0,'11111222,11111222,99999999' 
TABS,ioos:station:wmo:42045:1,1999-03-04T03:30:00Z,26.2168,-96.4998,2.0,310.8476379,11.61998709,-99999.0,'11111222,11111222,99999999' 
TABS,ioos:station:wmo:42045:1,1999-03-04T04:00:00Z,26.2168,-96.4998,2.0,323.1422296,9.686000206,-99999.0,'11133222,11111222,99999999' 
TABS,ioos:station:wmo:42045:1,1999-03-04T04:30:00Z,26.2168,-96.4998,2.0,317.4644722,9.703406618,-99999.0,'11133222,11111222,99999999' 
TABS,ioos:station:wmo:42045:1,1999-03-04T05:00:00Z,26.2168,-96.4998,2.0,324.0850171,8.643199639,-99999.0,'11133222,11111222,99999999' 
TABS,ioos:station:wmo:42045:1,1999-03-04T05:30:00Z,26.2168,-96.4998,2.0,306.8702323,7.45,-99999.0,'11133222,11111222,99999999' 
TABS,ioos:station:wmo:42045:1,1999-03-04T06:00:00Z,26.2168,-96.4998,2.0,310.1234208,6.238052581,-99999.0,'11133222,11111222,99999999' 
TABS,ioos:station:wmo:42045:1,1999-03-04T06:30:00Z,26.2168,-96.4998,2.0,327.8074687,6.156500629,-99999.0,'11133222,11111222,99999999' 
TABS,ioos:station:wmo:42045:1,1999-03-04T07:00:00Z,26.2168,-96.4998,2.0,297.1859162,6.194271547,-99999.0,'11133222,11111222,99999999' 
TABS,ioos:station:wmo:42045:1,1999-03-04T07:30:00Z,26.2168,-96.4998,2.0,313.0116825,6.113084328,-99999.0,'11133222,11111222,99999999' 
TABS,ioos:station:wmo:42045:1,1999-03-04T08:00:00Z,26.2168,-96.4998,2.0,286.4901844,4.192433661,-99999.0,'11133222,11111222,99999999' 
TABS,ioos:station:wmo:42045:1,1999-03-04T08:30:00Z,26.2168,-96.4998,2.0,318.6066159,3.372506486,-99999.0,'11133222,11111222,99999999' 
TABS,ioos:station:wmo:42045:1,1999-03-04T09:00:00Z,26.2168,-96.4998,2.0,319.6692712,3.909130338,-99999.0,'11133222,11111222,99999999' 
TABS,ioos:station:wmo:42045:1,1999-03-04T09:30:00Z,26.2168,-96.4998,2.0,288.9741413,5.044055908,-99999.0,'11133222,11111222,99999999' 
TABS,ioos:station:wmo:42045:1,1999-03-04T10:00:00Z,26.2168,-96.4998,2.0,292.5975011,3.877692613,-99999.0,'11133222,11111222,99999999' 
TABS,ioos:station:wmo:42045:1,1999-03-04T10:30:00Z,26.2168,-96.4998,2.0,313.9111761,5.580080645,-99999.0,'11133222,11111222,99999999' 
TABS,ioos:station:wmo:42045:1,1999-03-04T11:00:00Z,26.2168,-96.4998,2.0,323.0534405,2.978002686,-99999.0,'11133222,11111222,99999999' 
TABS,ioos:station:wmo:42045:1,1999-03-04T11:30:00Z,26.2168,-96.4998,2.0,341.6294656,2.823915721,-99999.0,'11133222,11111222,99999999' 
TABS,ioos:station:wmo:42045:1,1999-03-04T12:00:00Z,26.2168,-96.4998,2.0,274.7905404,1.796273921,-99999.0,'11133222,11111222,99999999' 
TABS,ioos:station:wmo:42045:1,1999-03-04T12:30:00Z,26.2168,-96.4998,2.0,257.3802863,2.746343023,-99999.0,'11133222,11111222,99999999' 
TABS,ioos:station:wmo:42045:1,1999-03-04T13:00:00Z,26.2168,-96.4998,2.0,292.1323673,5.149417443,-99999.0,'11133222,11111222,99999999' 
TABS,ioos:station:wmo:42045:1,1999-03-04T13:30:00Z,26.2168,-96.4998,2.0,148.1856252,5.083778123,-99999.0,'11133222,11111222,99999999' 
TABS,ioos:station:wmo:42045:1,1999-03-04T14:00:00Z,26.2168,-96.4998,2.0,356.4014508,4.779424652,-99999.0,'11133222,11111222,99999999' 
TABS,ioos:station:wmo:42045:1,1999-03-04T14:30:00Z,26.2168,-96.4998,2.0,350.1905957,7.864992053,-99999.0,'11133222,11111222,99999999' 
TABS,ioos:station:wmo:42045:1,1999-03-04T15:00:00Z,26.2168,-96.4998,2.0,181.3724257,6.261796867,-99999.0,'11133222,11111222,99999999' 
TABS,ioos:station:wmo:42045:1,1999-03-04T15:30:00Z,26.2168,-96.4998,2.0,327.4570241,12.19475297,-99999.0,'11111222,11111222,99999999' 
TABS,ioos:station:wmo:42045:1,1999-03-04T16:00:00Z,26.2168,-96.4998,2.0,324.0167828,13.44560895,-99999.0,'11111222,11111222,99999999' 
TABS,ioos:station:wmo:42045:1,1999-03-04T16:30:00Z,26.2168,-96.4998,2.0,334.909538,15.46976729,-99999.0,'11111222,11111222,99999999' 
TABS,ioos:station:wmo:42045:1,1999-03-04T17:00:00Z,26.2168,-96.4998,2.0,335.1232375,18.06632503,-99999.0,'11111222,11111222,99999999' 
TABS,ioos:station:wmo:42045:1,1999-03-04T17:30:00Z,26.2168,-96.4998,2.0,335.7103054,18.47554059,-99999.0,'11111222,11111222,99999999' 
TABS,ioos:station:wmo:42045:1,1999-03-04T18:00:00Z,26.2168,-96.4998,2.0,332.9246797,22.5851832,-99999.0,'11111222,11111222,99999999' 
TABS,ioos:station:wmo:42045:1,1999-03-04T18:30:00Z,26.2168,-96.4998,2.0,339.1732712,25.9881069,-99999.0,'11111222,11111222,99999999' 
TABS,ioos:station:wmo:42045:1,1999-03-04T19:00:00Z,26.2168,-96.4998,2.0,338.677386,26.23595243,-99999.0,'11111222,11111222,99999999' 
TABS,ioos:station:wmo:42045:1,1999-03-04T19:30:00Z,26.2168,-96.4998,2.0,342.062095,26.62421642,-99999.0,'11111222,11111222,99999999' 
TABS,ioos:station:wmo:42045:1,1999-03-04T20:00:00Z,26.2168,-96.4998,2.0,356.0947825,26.28102928,-99999.0,'11111222,11111222,99999999' 
TABS,ioos:station:wmo:42045:1,1999-03-04T20:30:00Z,26.2168,-96.4998,2.0,351.6454146,25.60170502,-99999.0,'11111222,11111222,99999999' 
TABS,ioos:station:wmo:42045:1,1999-03-04T21:00:00Z,26.2168,-96.4998,2.0,347.203163,28.26200984,-99999.0,'11111222,11111222,99999999' 
TABS,ioos:station:wmo:42045:1,1999-03-04T21:30:00Z,26.2168,-96.4998,2.0,355.9681647,29.72356977,-99999.0,'11111222,11111222,99999999' 
TABS,ioos:station:wmo:42045:1,1999-03-04T22:00:00Z,26.2168,-96.4998,2.0,347.935841,26.36225521,-99999.0,'11111222,11111222,99999999' 
TABS,ioos:station:wmo:42045:1,1999-03-04T22:30:00Z,26.2168,-96.4998,2.0,357.3325929,28.79120004,-99999.0,'11111222,11111222,99999999' 
TABS,ioos:station:wmo:42045:1,1999-03-04T23:00:00Z,26.2168,-96.4998,2.0,336.1543998,23.94394287,-99999.0,'11111222,11111222,99999999' 
TABS,ioos:station:wmo:42045:1,1999-03-04T23:30:00Z,26.2168,-96.4998,2.0,0.652009934,26.37170643,-99999.0,'11111222,11111222,99999999' 
TABS,ioos:station:wmo:42045:1,1999-03-05T00:00:00Z,26.2168,-96.4998,2.0,354.8455784,18.25382152,-99999.0,'11111222,11111222,99999999' 
TABS,ioos:station:wmo:42045:1,1999-03-05T00:30:00Z,26.2168,-96.4998,2.0,346.1148733,26.71054099,-99999.0,'11111222,11111222,99999999' 
TABS,ioos:station:wmo:42045:1,1999-03-05T01:00:00Z,26.2168,-96.4998,2.0,10.58475887,21.06848357,-99999.0,'11111222,11111222,99999999' 
TABS,ioos:station:wmo:42045:1,1999-03-05T01:30:00Z,26.2168,-96.4998,2.0,2.950472393,23.12064445,-99999.0,'11111222,11111222,99999999' 
TABS,ioos:station:wmo:42045:1,1999-03-05T02:00:00Z,26.2168,-96.4998,2.0,5.701271903,23.9585058,-99999.0,'11111222,11111222,99999999' 
TABS,ioos:station:wmo:42045:1,1999-03-05T02:30:00Z,26.2168,-96.4998,2.0,10.83464486,24.57812035,-99999.0,'11111222,11111222,99999999' 
TABS,ioos:station:wmo:42045:1,1999-03-05T03:00:00Z,26.2168,-96.4998,2.0,11.73273213,24.19550578,-99999.0,'11111222,11111222,99999999' 
TABS,ioos:station:wmo:42045:1,1999-03-05T03:30:00Z,26.2168,-96.4998,2.0,12.61734603,23.21050193,-99999.0,'11111222,11111222,99999999' 
TABS,ioos:station:wmo:42045:1,1999-03-05T04:00:00Z,26.2168,-96.4998,2.0,12.51893612,24.72790327,-99999.0,'11111222,11111222,99999999' 
TABS,ioos:station:wmo:42045:1,1999-03-05T04:30:00Z,26.2168,-96.4998,2.0,20.54789063,24.18889415,-99999.0,'11111222,11111222,99999999' 